dimanche 10 Oct 21
09 : 00

Venez profitez des chemins du causse Corrézien à l’occasion de la 19eme édition du trail de la paix!
Au programme vous retrouverez donc le trail avec ses deux parcours:
– 13km (380m de D+) départ 9h30: 13 €
– 22km (650 de D+) départ 9h : 15€
Mais également la rando et marche nordique avec des départs libres de 8h15 à 10h pour 8 ou 11km avec une inscription à 5 €.
Tous les départs se feront depuis la Base Nautique de Lissac sur Couze comme chaque année. Merci de ne pas vous garer sur les bas-côtés de la descente vers la base (pensez aux parkings des peupliers ou du moulin).

Voir le flyer complet

En raison des conditions sanitaires il n’y aura pas de ravitaillement en nourriture sur les parcours. De l’eau sera à disposition mais il faut venir avec son propre récipient. Une collation vous attendra à l’arrivée.
Les inscriptions se feront uniquement sur le site jorganize jusqu’au samedi 9 octobre à 20h. Pas d’inscriptions sur place. 
Un retrait des dossards sera possible dès le samedi AM de 14h à 17h à la base nautique. Il vous sera demandé de présenter votre pass sanitaire lors du retrait des dossards (ou bien test PCR négatif de moins de 48h à présenter le jour de la course) .
Merci de venir avec un masque et de la garder sur le site et d’également respecter les consignes sanitaires énoncées dans le règlement de la course. 
Voir le règlement

 

Cliquez sur les parcours pour les agrandir.
 
On vous attend donc nombreuses et nombreux le dimanche 10 octobre!
 
L’équipe du trail de la paix

 






Informations :

anninscverif
Inscription en ligne arrétée le 09/10/2021 à 20:00
ClDosNomVoirTempsS.Cat.CC.Club-
12BAUDOIN Herve00:55:56 MM21USM MONTARGIS (CEN)
2162PLISSONNEAU Rene-pierre00:57:03 MSE1
3152CAMINADE Sebastien01:00:16 MM22canisport 19
447COLOMBO Mathieu01:00:27 MSE2SAINT-CERE ATHLETISME CLUB (OC
5127BENYACOUB David01:00:36 MM31
639KIENTZ Jean-charles01:00:50 MM01horizon trail
752TRARIEUX Marc01:00:56 MSE3
822MONTINI Patrick01:01:10 MM51
99ALDEBERT Sylvain01:02:24 MM11
1087CHAUDIERES Tom01:03:14 MSE4
1125MAMET Bruno01:03:48 MM12s/l ca brive
12161DUBOURG Thomas01:04:03 MSE5
1357LAGRAVE Quentin01:04:58 MES1
14155LEYGONIE Cedric01:05:03 MSE6
15156BLONDEL Christian01:05:24 MM23les cedres sport sante
16129BOY Herve01:08:10 MM13
17106DAVID Laurent01:08:55 MM14
1885MAZOT Linda01:08:57 FM11
19131LANAUD Kim01:09:22 MSE7
208TOURNEBISE Christian01:09:25 MM24EBTA : S/L TULLE AC (N-A)
2124VIDALIE Laurent01:10:02 MM25
22144SEABRA Brice01:10:17 MSE8
23108FILHOL Quentin01:10:20 MSE9
2490AGEORGES Morgan01:10:39 MM02
253763NAYRAC Jeremy01:10:57 MSE10
26122GAIGE Aurelien01:11:22 MSE11
27115ROUBEYRIE Daniel01:11:52 MM61CORREZE A : S/L ATHLETISME ST
281FERNANDES Jose-manuel01:11:52 MM26CORREZE A : S/L ATHLETISME ST
2976MICHON Christelle01:11:52 FM01
30157BALBARIE Matthieu01:12:37 MSE12
3166DUPUY Frederic01:12:49 MM03
3299LUC Fabien01:13:25 MM15
3345PEOTTA Sebastien01:13:39 MM27
3498LUC Laurie01:13:43 FSE1
35153GRENOUILHAT Pierre01:13:54 MM04brive limousin triathlon
36160DA SILVA Alexandre01:13:56 MM52uzerche nature passion
37139COUSTILLAS Christophe01:14:03 MM28
3848TILLY Gilles01:14:39 MM53EBTA : S/L TULLE AC (N-A)
3979VAREILLE Philippe01:14:52 MM41EBTA : S/L PAYS DE BRIVE ATHLE
4019COLLIOT Olivier01:15:02 MES2
4168MEYRIGNAC Herve01:15:31 MM29
4264CHANTREAU Mickael01:15:46 MM05
436LEFEBVRE Laurent01:15:52 MM06brive limousin triathlon
4471MERCIER Emilie01:16:01 FSE2cahors athletisme
4578GIBOURET Laurent01:16:08 MM32
4691BEAUDET Anthony01:16:20 MM210
4726COUPAT Benjamin01:16:41 MES3
4856TERROU Andre01:16:43 MM33
49143MAURIN Cedric01:16:47 MM16
5042DIOT Philippe01:16:53 MM34EBTA : S/L PAYS DE BRIVE ATHLE
5186FOUILLADE Nicolas01:17:06 MSE13
5261PINCHON Nicolas01:17:32 MM07brive limousin triathlon
5346CAILLARD Sarah01:17:33 FSE3
5480SOL Marceau01:18:06 MSE14
55126BRICE Patrick01:18:17 MM42
56141FEUILLADE Jean-francois01:18:26 MM35CORREZE A : S/L ATHLETISME ST
5731LABROUSSE Didier01:18:27 MM43CORREZE A : S/L ATHLETISME ST
5810LATOUR Emmanuel01:18:30 MM08mazeres course pedestre
5932PEJOAN Yann01:18:49 MM17
607SKEBRA Frank01:19:13 MSE15
6167FERNANDEZ Philippe01:19:20 MM54
6283GREZE Marcel01:19:41 MM81
6370ROPTIN Michael01:19:57 MM36
6455WATTEBLED Philippe01:20:20 MM37
6575MONS Geoffrey01:20:39 MSE16EBTA : S/L TULLE AC (N-A)
6629DA SILVA Hugo01:20:41 MM09
6754BOSCARDIN Nadine01:21:04 FM31groupe athletique de gembloux
68148HERAUD Vanessa01:21:30 FM12
6915WILHELM Ludovic01:21:37 MM18
7043IRAGNE Sebastien01:21:47 MM211
714BENEDETTO Remi01:21:49 MM19
7263DELBOS Marion01:21:58 FM02
7351GARDET Jean-marc01:22:24 MM62CORREZE A : S/L ATHLETISME ST
74145PASCAUD Fabien01:22:47 MM212
75134DUBOIS Alain01:22:53 MM44EBTA : S/L PAYS DE BRIVE ATHLE
7630BECUE Patrick01:23:14 MM38s/l athletisme st pantaleon
77125PEUCH Sebastien01:23:53 MM213
78137PELLARD Sebastien01:24:02 MM214CORREZE A : S/L ATHLETISME ST
793COSTE Julien01:24:15 MM110
8096ALBOUZE Frederic01:24:18 MM215CORREZE A : S/L ATHLETISME ST
8134BERSARS Mathieu01:24:18 MM111
82151LALIGAND Quentin01:24:20 MM010
8384MOURCOU Antoine01:24:26 MM45
84132FAURE Joffroy01:24:30 MM216
8520AUDONNET Julie01:24:34 FSE4
8653VIGNE Patrick01:24:38 MM46
87100LALIGAND Pierre-yves01:24:43 MM112
8894COUDERT Olivier01:25:18 MM39
8972LEGENDRE Sandrine01:25:28 FM32SAINT-CERE ATHLETISME CLUB (OC
9065LAVAUD Lionel01:25:30 MSE17
91130JENDAUD Aurelie01:25:38 FM13
92123MERCIER Sylvie01:25:43 FM41
9392SAINT-ORENS Nicolas01:26:06 MM217
9416LEPOUTRE Cecile01:26:30 FM21
9558PHENIEUX Laurent01:26:31 MM218
96119ARLEBOIS Fabrice01:26:51 MM310
97116BRUN Patrick01:26:51 MM219
98154SALESSE Eric01:26:51 MM311
995VINET Julien01:27:26 MM113
10077BEFFARE Serge01:27:40 MM63CORREZE A : S/L ES USSEL (N-A)
101150ROBIN Claire01:27:45 FSE5horizon trail 19
102138BEAUVIR Laurence01:27:59 FM33CORREZE A : S/L ATHLETISME ST
103128HAMON Philippe01:28:04 MM47pbac
104158CHASTANET Julien01:28:12 MSE18
10589GARNICHE Celia01:28:24 FSE6
10682MARTIN Ludovic01:29:09 MM220CORREZE A : S/L ATHLETISME ST
107107PLANCHON Claudine01:29:44 FM51
10840VILAIN Regis01:29:48 MM48
10988LACASSAGNE Annick01:29:53 FM61horizon trail 19
11062PINET Yvette01:30:17 FM03
111121DELMAS Marie_jeanne01:30:57 FM62
11221GENESTE Christophe01:31:03 MM312groupe omnisports 19
113142FOURNET Maxime01:31:19 MSE19
114120DUMORTIER Benjamin01:31:23 MES4
115133LAROUQUIE Emma01:31:23 FSE7
11627BRZEZINSKI Celine01:31:30 FM04brive limousin triathlon
117146BRASSEUR Yann01:31:35 MSE20
118147BRASSEUR Stephanie01:31:35 FM05
11923GARAUD Virginie01:31:37 FM22DORDOGNE A : S/L PERIGORD NOIR
120104BORDES Thierry01:32:23 MM55
12111GASPAROUX Nicolas01:32:41 MM114
122112FOUILLET Helene01:33:02 FSE8amicale des pompiers de brive
12350DELARUE Juliette01:33:04 FSE9
124124LEFEVRE Virginie01:33:22 FM34
12536BOUFFET Daniel01:33:51 MM49
12697DECELLE Martine01:34:03 FM52CORREZE A : S/L ATHLETISME ST
127105FEBVRE Anais01:35:16 FSE10horizon trail 19
128159ALIZIE Marine01:35:18 FM06
129110FAURE BRAC Julien01:35:39 MM011amicale des pompiers de brive
13044POUZET Vincent01:35:56 MM115
13138BISSAOLO Philibert01:36:04 MM313
13217BOISSIERE Marine01:36:54 FSE11pbac
13335ROI SANS SAC Sonia01:36:56 FM14
13433DONNADIEU Bernard01:37:26 MM56
13595CANOVAS Oceane01:38:18 FSE12
13641DOS SANTOS Camille01:38:40 FSE13SAINT-CERE ATHLETISME CLUB (OC
13773DOS SANTOS Fran?ois01:38:40 MM314
138118DELMAS Eliane01:38:58 FM63
13914DONNEDIEU Henri-pierre01:39:24 MM116
140111BURG Thibaud01:40:41 MSE21amicale des pompiers de brive
141114GOUYGOU Jean jacques01:41:12 MM64CORREZE A : S/L ATHLETISME ST
142149FAYAT Thierry01:42:12 MM315
14312GRATADOU Sylvain01:42:20 MM012
14437SIMONEAU Gilbert01:42:35 MM71
14581RICCIO Laurence01:43:29 FM53EBTA : S/L PAYS DE BRIVE ATHLE
14618BOISSIERE Dominique01:43:30 FM42EBTA : S/L PAYS DE BRIVE ATHLE
147101CHASSALINAS Veronique01:43:58 FM54
148140TEIXEIRA Karine01:46:18 MM013
149102BONIFACIO Ana01:47:14 FM43
150109CREMOUX Frederic01:47:36 MM221
15113DONNEDIEU Aurelie01:48:12 FM07
152136NOUAILLES Celine01:48:36 FM15BORGWARNER RUNNING CLUB (N-A)
153135BONNET David01:48:36 MM117BORGWARNER RUNNING CLUB (N-A)
15474PICARD Emmanuel01:49:36 MM316EBTA : S/L PAYS DE BRIVE ATHLE
15593COUDERT Cecile01:51:24 FM23
15659BORDES Valerie01:51:47 FM35
15760PASCALOU Sandra01:53:29 FM08
15869CHEVALIER Julien01:53:29 MM118
159113FAURE Maryse martine01:54:08 FM44CORREZE A : S/L ATHLETISME ST


22 Comments.

  • Rispoli luce says:

    Sans les coureurs et les marcheurs la journée ne serait pas une réussite. Bonne humeur, convivialité, le bonheur partagé d’être ensemble dans ce cadre magnifique que nous offre le lever de soleil sur le lac du Causse. Tout y était c’est le p’us grand cadeau que vous faites aux 70 bénévoles animés par la Culture de Paix qui ont oeuvré à l organisation de cette journée.
    Pour les récompenses qui n’ont pas pas été reclamées appelez moi avant le 15 octobre. 0610758269

    • MURAT Laurent says:

      Bonjour,

      Je n’ai pas pû être parmi vous car j’avais envoyé un mail au mail indiqué avec comme renseignements notamment sollitation co-voiturage.

      Le mail avait été envoyé trois semaines avant l’évènement mais le monsieur m’a répondu que celui-ci s’était rangé dans les spams. Pas grave ce n’est que partie remise pour une prochaine édition !.

      Certainement un bug informatique !!.

      Merci beaucoup.

  • Blondel says:

    Merci pour cette matinée dans ces magnifiques chemins de Chasteaux. Félicitations à toute l’organisation, tout était parfait. Sans oublier la team jorganize à l’année prochaine !!!

  • WATTEBLED PHILIPPE says:

    Ce trail a été une grande réussite. Je remercies tout les bénévoles qui ont fait un travail remarquable. Les conditions météréologiques antycyclonique en ont fait d’une journée grandement réussie. Je remercierais aussi notre ami Alain au micro qui a été remarquable. Encore merci et bravo .

  • Sicard says:

    Tout était parfait

  • Deschamps says:

    Bravo à tous les bénévoles, travailleurs de l ombre , assurant notre sécurité
    Tout était parfait
    Merci et à l année prochaine

  • Noël GRENIER-MARTIN says:

    Bonsoir,
    Est il Encore possible de s’inscrire pour la randonnée ?
    Merci.

  • Pouget says:

    Je me suis inscrite pour la randonnée de 7 kilomètres j’ai bien la confirmation mais je ne vois pas mon nom inscrit sur la liste des prêts inscrit

  • Mario Pavone says:

    Bonjour, j’essaye de m’inscrire depuis 30 minutes mais impossible à cause d’un problème informatique sur vote site.

    Merci de votre compréhension.

  • Linda MAZOT says:

    Bonsoir. Je viens de lire sur le règlement qu’il faut un test PCR de moins de 48h. C’est pas 72h normalement ? Et les auto-test et test antigeniques ne sont pas valables du coup ? Merci d’avance pour votre réponse. 

  • MERCIER says:

    Bonjour
    Je viens de m’inscrire sur le train de 13 km/h ce matin et je ne vois pas mon nom
    Mercier sylvie
    Pouvez-vous confirmer
    Cordialement

  • Claire says:

    Bonsoir, je voudrai savoir à quelle heure aura lieu le départ de la randonnée 11km
    Cordialement
    Merci

    • Rispoli luce says:

      Les randonneurs partiront librement dès leur inscription. Départ libre
      Après 9h30 nous conseillons aux marcheurs de ne pas s engager sur le 11 km.
      À bientôt

  • lomenech yann says:

    Bonjour

    Le retrait du dossard peut il se faire aussi le dimanche matin ?
    car aller à la base nautique le samedi et le dimanche … quand on est un peu loin ce n’est pas évident

    Cordialement

    • jason Febvre says:

      Bonjour,
      Oui il sera possible de retirer son dossard le dimanche matin notamment pour les coureurs qui viennent de loin. On demande au maximum de personnes, si possible, de venir le samedi AM pour éviter les trop longues files d’attente le jour de la course.
      Sportivement,
      A dimanche!

  • Fab LGN says:

    Bonjour,
    1h30 de route aller-retour pour venir chercher mon dossard la veille de la course me freine un peu !
    Sera-t-il possible de retirer les dossards le dimanche matin ?
    Sportivement
    Fabien

    • Rispoli Luce says:

      Nous souhaiterions que le retrait des dossards le dimanche matin soit exceptionnel, mais dans votre cas oui vous pourrez prendre votre dossard dimanche. À bientôt.

  • Pascalou says:

    Bonjour,

    Nous souhaitons nous inscrire pour la course nature de 13 km, on doit renseigner n références. Nous sommes non licenciées et nous n avons jamais fait de courses chronométrées est ce possible de s inscrire tout de même ?
    Bien cordialement
    Sandra




Le resenti (3 choix possibles)

Loading ... Loading ...

Le parcours (4 choix possibles)

Loading ... Loading ...

Ravitaillement (3 choix possibles)

Loading ... Loading ...

Les récompenses (3 choix possibles)

Loading ... Loading ...

La météo (2 choix possibles)

Loading ... Loading ...